RH
54 49 49 49 46 52 53 57 63 68 66 68 66 67 67 69 72 74 78 80 79 77
55 56 51 53 55 51 56 54 65 68 69 68 69 70 75 80 83 83 87 89 88 89
52 53 54 53 56 56 58 61 65 68 68 68 70 73 80 86 85 89 92 92 93 94
51 52 55 56 56 59 62 62 63 65 67 70 77 79 85 87 88 92 94 96 95 93
54 54 58 59 58 63 62 63 62 62 64 70 80 83 86 89 95 95 96 94 96 95
60 60 60 60 61 62 63 64 63 63 70 78 81 82 86 86 92 91 91 91 94 97
61 61 62 61 62 65 65 65 69 73 77 81 82 83 85 91 96 97 97 99 98 98
59 60 62 65 67 69 72 69 70 79 83 87 88 88 92 94 96 96 97 98 96 97
68 67 71 72 71 81 84 83 86 93 94 95 98 100 100 96 95 95 97 97 98 97
75 77 80 77 79 85 92 95 96 92 93 97 97 100 100 100 93 93 95 96 95 95
70 71 76 81 84 94 95 97 97 97 96 96 96 100 100 100 93 95 96 96 95 96
72 73 81 84 88 89 94 96 97 96 95 96 99 99 97 92 94 99 100 100 100 100
69 80 85 88 93 94 94 96 96 96 97 99 97 96 94 88 100 100 100 100 100 99
70 80 83 88 93 94 96 97 97 97 98 97 94 94 92 90 86 99 100 100 100 100
Wind_Speed
23 15 15 17 14 12 12 13 15 17 17 18 17 16 15 12 12 13 12 16 13 10
19 20 18 19 16 13 14 12 15 17 17 17 17 16 15 11 12 12 11 11 12 11
19 20 19 16 18 18 15 16 16 16 16 16 16 15 13 11 11 11 9 8 10 10
17 19 18 17 18 17 16 17 17 16 16 15 14 13 11 11 11 12 11 9 10 11
17 18 19 20 19 18 18 17 17 16 15 14 13 13 13 13 10 11 11 10 10 10
17 18 20 20 19 19 18 17 16 15 14 15 15 14 12 12 10 10 10 10 9 7
17 18 17 18 18 18 18 17 16 15 14 14 13 12 11 9 7 5 4 4 5 7
15 16 16 17 17 16 15 14 13 14 12 10 10 8 10 8 7 8 7 6 6 5
11 12 13 14 15 13 13 14 12 9 9 8 3 11 12 11 8 8 9 9 8 9
9 11 11 11 13 13 13 10 10 10 10 8 6 10 13 12 9 10 10 10 9 9
12 12 12 11 12 10 10 11 10 9 9 10 6 14 15 14 12 10 10 10 10 10
12 13 13 15 13 11 10 10 10 10 12 12 11 16 17 15 12 10 8 6 7 9
12 13 14 11 12 10 10 8 8 8 9 15 15 12 15 17 10 11 8 5 7 9
13 14 13 12 10 11 11 10 9 9 7 11 15 13 18 18 12 11 9 7 7 5
Wind_Direction
221 221 221 220 215 211 209 208 203 202 208 212 213 215 216 218 218 221 222 226 228 231
217 218 217 218 210 208 209 207 202 200 203 207 209 210 210 213 214 218 218 221 226 229
217 217 218 214 210 209 205 205 199 197 200 205 207 208 206 207 213 213 213 217 219 222
218 217 214 213 209 206 202 201 198 195 197 200 205 204 201 205 203 209 213 205 213 221
219 212 211 211 206 201 201 198 196 192 194 195 198 197 201 202 194 203 212 212 212 219
217 211 208 207 203 198 196 193 193 190 190 194 197 199 201 204 197 207 215 215 211 210
212 212 210 204 199 194 193 187 187 185 190 193 194 197 194 190 176 168 176 162 169 163
212 210 209 202 196 189 187 186 180 179 181 179 188 183 174 163 148 144 127 103 96 106
213 207 199 199 193 179 178 173 164 160 146 154 123 140 137 144 140 140 136 122 101 96
200 203 198 189 186 177 163 142 139 148 146 134 132 140 136 132 136 137 128 122 120 105
209 202 197 188 187 161 150 145 143 142 146 138 129 133 128 120 121 118 118 124 124 121
212 214 198 195 188 170 166 150 146 153 150 137 132 131 132 121 117 110 102 104 114 128
222 211 206 189 178 155 159 133 134 137 142 140 136 145 135 133 128 127 131 118 120 125
226 211 199 185 164 151 138 126 130 124 131 134 144 152 144 147 150 148 145 149 144 134